Location: Averan
(43.1380°N, 0.0053°E)
Time: 12:49:42
(UTC+00:00)

Daily predictions for brighter satellites

Satellite Brightness Start Highest point End
(mag) Time Altitude Azimuth Time Altitude Azimuth Time Altitude Azimuth
SPOT 1/Viking Rocket 4.5 19:53:25 10° S 19:58:24 51° W 20:03:25 10° NNW
Resurs 01 Rocket 1.7 19:54:29 10° SSE 19:58:54 86° WSW 20:03:22 10° NNW
Tsikada Rocket 4.0 19:53:37 10° S 19:59:48 75° E 20:06:05 10° N
BREEZE-M DEB (TANK) 2.8 20:00:03 10° WSW 20:02:31 87° SSE 20:09:11 10° ENE
Cosmos 1743 2.6 19:59:20 10° N 20:02:57 66° E 20:06:32 10° SSE
Okean O Rocket 1.7 19:58:57 10° SSE 20:03:23 87° ENE 20:07:51 10° NNW
Cosmos 1766 Rocket 3.6 19:59:11 10° N 20:03:39 73° E 20:08:06 10° SSE
Cosmos 1110 Rocket 4.5 20:00:22 10° N 20:05:32 49° ENE 20:10:38 10° SE
FALCON 9 R/B 3.1 20:02:11 10° WSW 20:05:57 36° S 20:15:41 10° ESE
CARTOSAT-1 3.8 20:05:57 10° S 20:10:11 70° WSW 20:14:27 10° NNW
Lacrosse 5 4.5 20:11:40 10° W 20:13:20 12° WSW 20:15:00 10° SW
Cosmos 2292 Rocket 4.2 20:09:15 10° S 20:15:24 83° W 20:20:05 10° N
CZ-4B R/B 4.0 20:10:59 10° S 20:16:07 50° W 20:21:16 10° NNW
Lacrosse 5 rocket 4.3 20:15:35 10° NW 20:17:36 13° N 20:19:36 10° NNE
ATLAS 3B R/B 4.4 20:11:24 10° NW 20:18:09 33° WSW 20:24:46 10° S
Lacrosse 4 Rocket 3.7 20:17:10 10° NNE 20:18:58 13° NE 20:20:49 10° ENE
CZ-4 R/B 3.8 20:18:40 10° SW 20:21:33 20° W 20:24:29 10° NW
USA 306 2.6 20:21:03 10° NW 20:24:48 78° SW 20:28:14 13° SE
Meteor 1-27 Rocket 4.4 20:20:18 10° SSE 20:25:10 33° E 20:30:04 10° NNE
Aureole 3 Rocket 4.1 20:20:58 10° NNW 20:25:40 65° W 20:32:15 10° S
Cosmos 1408 Rocket 4.2 20:22:34 10° N 20:26:47 40° ENE 20:30:33 12° SE
Cosmos 1340 Rocket 4.1 20:25:27 12° SE 20:28:18 23° E 20:31:30 10° NE
USA 186 4.4 20:26:44 10° SW 20:29:11 20° W 20:31:41 10° NW
CZ-4C R/B 3.3 20:26:10 10° NNE 20:30:05 70° ESE 20:34:08 10° S
SPOT 5 2.7 20:30:01 11° SSE 20:34:21 62° ENE 20:38:39 10° N
Cosmos 1151 Rocket 4.4 20:32:38 13° SE 20:35:09 21° E 20:38:27 10° NE
Ariane Rocket 3.9 20:34:06 13° SE 20:38:01 33° ENE 20:42:32 10° N
Cosmos 1833 Rocket 4.5 20:43:40 11° ESE 20:44:40 12° E 20:46:37 10° ENE
Cosmos 1726 1.7 20:42:31 10° N 20:45:38 80° W 20:48:11 14° S
SPOT 3 Rocket 4.4 20:42:08 15° SE 20:45:52 36° ENE 20:50:32 10° N
Cosmos 1818 4.2 20:42:28 10° S 20:47:18 34° ESE 20:52:10 10° NE
IRS-1C Rocket 4.1 20:43:34 12° SSE 20:48:23 78° ENE 20:53:39 10° NNW
Nadezhda 4 Rocket 4.3 20:46:07 12° SSE 20:51:35 47° E 20:57:31 10° NNE
Cosmos 1603 4.0 20:46:30 10° SSW 20:52:09 72° WNW 20:57:53 10° NNE
Okean-O 3.3 20:48:07 10° S 20:52:24 53° W 20:56:44 10° NNW
Cosmos 2279 Rocket 4.0 20:46:33 10° N 20:52:47 89° WSW 20:58:55 10° S
USA 245 2.7 20:52:10 28° ESE 20:52:52 37° ENE 20:55:12 10° N
ERS-1 Rocket 3.1 20:49:15 16° SSE 20:53:13 63° ENE 20:58:12 10° N
Okean 1 3.1 20:49:40 10° S 20:53:27 72° E 20:57:20 10° NNE
Cosmos 2369 Rocket 3.8 20:48:52 10° NW 20:53:38 30° WSW 20:58:24 10° SSW
Cosmos 614 Rocket 4.3 20:53:02 10° S 20:57:53 45° ESE 21:02:51 10° NNE
Cosmos 1452 Rocket 4.0 20:54:25 10° NNW 20:59:33 56° WSW 21:04:13 12° S
Cosmos 1500 Rocket 3.5 20:58:39 10° N 21:02:57 72° E 21:05:46 21° SSE
Cosmos 1975 4.3 21:01:38 10° NNE 21:04:46 22° ENE 21:06:07 19° ESE
Meteor 1-19 Rocket 4.2 21:05:38 10° S 21:11:29 82° E 21:17:12 10° NNE
USA 59 Rocket 0.5 21:07:49 10° NNW 21:11:49 57° NE 21:15:04 22° SE
Cosmos 1805 Rocket 3.5 21:09:56 10° N 21:14:22 79° E 21:16:58 24° SSE
NOSS 2-1 (E) 4.0 21:10:37 10° NNW 21:14:38 60° NE 21:17:49 23° SE
DELTA 2 R/B (1) 4.0 21:10:07 10° SW 21:15:19 41° SSE 21:20:14 11° E
Sich 1 3.0 21:10:59 10° N 21:15:23 82° E 21:17:57 24° SSE
ISS -1.4 21:15:51 10° W 21:17:38 14° SW 21:18:42 12° SSW
Cosmos 1536 3.5 21:14:22 10° NNW 21:18:09 48° W 21:21:02 16° SSW
Cosmos 1633 Rocket 4.5 21:14:39 10° NNE 21:18:17 25° ENE 21:19:46 21° ESE
Cosmos 1666 Rocket 4.5 21:19:26 10° N 21:23:20 32° ENE 21:24:44 26° ESE
Terra 1.9 21:22:25 23° S 21:25:24 76° WSW 21:30:08 10° NNW
GEOS 3 Rocket 4.2 21:20:53 10° NE 21:25:30 33° ESE 21:27:03 27° SSE
Spot 1 4.2 21:22:25 10° NNE 21:26:29 52° ESE 21:28:15 31° SSE
NOSS 2-1 (D) 3.7 21:23:36 10° NW 21:27:39 82° NE 21:30:22 29° SE
Meteor 1-11 Rocket 4.3 21:22:11 10° NNW 21:27:46 56° W 21:32:32 15° S
ARGOS Delta rocket 4.4 21:25:42 17° S 21:29:23 54° W 21:34:00 10° NNW
Cosmos 2026 Rocket 4.3 21:26:45 25° SSE 21:30:13 49° E 21:36:11 10° NNE
Cosmos 1992 Rocket 4.1 21:29:37 10° NNW 21:34:49 62° ENE 21:37:11 31° SE
Cosmos 1302 Rocket 4.3 21:32:50 10° NNW 21:37:58 63° WSW 21:40:49 26° S
Landsat 4 4.4 21:41:10 28° SSW 21:42:31 42° W 21:45:51 10° NNW
Cosmos 1697 Rocket 4.0 21:39:21 10° N 21:44:15 29° NE 21:47:10 19° E
Cosmos 1607 4.5 21:42:38 29° SSE 21:45:05 40° ESE 21:51:03 10° NE
NOSS 3-3 (A) 3.6 21:40:32 10° SSW 21:45:52 84° SE 21:52:05 10° NE
MOS 1 Rocket 3.8 21:45:42 27° S 21:48:33 67° W 21:53:55 10° NNW
USA 281 3.3 21:44:56 28° SE 21:48:34 70° ENE 21:55:08 10° NNW
Cosmos 1340 3.6 21:47:23 10° NNW 21:50:32 36° W 21:51:36 28° SW
Orbus 7S? 3.8 21:44:46 10° SSW 21:51:34 57° SE 21:54:59 10° ENE
Spot 2 Rocket 4.2 21:50:43 23° SSW 21:53:34 48° W 21:58:27 10° NNW
Cosmos 1980 Rocket 4.2 21:49:40 10° N 21:53:39 19° NE 21:57:19 11° E
Cosmos 1140 Rocket 4.3 21:55:40 31° ESE 21:56:14 32° E 22:00:51 10° NE
Lacrosse 5 rocket 4.1 21:54:57 10° NNW 21:57:29 15° NNE 21:59:58 10° NE
Lacrosse 4 Rocket 1.3 21:53:42 10° NNW 21:57:49 85° WSW 21:58:43 54° SSE
Meteor 2-4 Rocket 3.8 21:58:17 25° SSW 22:01:56 84° W 22:07:54 10° N
Cosmos 1066 Rocket 4.4 22:00:45 37° SSE 22:02:52 57° E 22:08:37 10° NNE
H-2A R/B 4.2 22:02:00 19° E 22:02:55 21° ENE 22:06:06 10° NNE
NOSS 2-1 (C) 4.3 22:00:49 10° NW 22:04:53 50° WSW 22:06:31 36° S
Cosmos 1626 1.7 22:06:08 80° NW 22:06:08 80° NW 22:09:17 10° N
IRIDIUM 104 4.3 22:02:49 10° N 22:08:04 85° W 22:10:02 40° S
Cosmos 1553 Rocket 4.3 22:02:11 10° N 22:08:05 49° ENE 22:10:14 35° SE
BREEZE-M DEB (TANK) 4.2 22:06:54 10° NW 22:08:39 21° N 22:10:18 13° ENE
BREEZE-M DEB (TANK) 3.4 22:11:16 27° SSW 22:13:33 64° SE 22:26:07 10° ENE
Ariane Rocket 4.4 22:14:14 19° SW 22:16:54 31° W 22:21:23 10° NW
IRIDIUM 114 4.5 22:11:59 10° N 22:17:11 70° W 22:19:10 38° SSW
NOSS 3-3 (C) 4.2 22:13:44 10° SW 22:19:02 63° NW 22:25:18 10° NNE
ARIANE 5 R/B 3.0 22:18:32 45° E 22:19:08 48° ENE 22:23:17 10° N
Cosmos 1674 3.3 22:21:29 39° ENE 22:21:29 39° ENE 22:24:08 10° NNE
CZ-2C R/B 3.6 22:16:54 10° NNE 22:21:20 60° ESE 22:21:42 58° SE
Cosmos 2285 Rocket 4.3 22:21:35 40° SE 22:23:06 47° ESE 22:29:09 10° NNE
MetOp-A 4.3 22:22:23 38° SSW 22:23:48 52° W 22:28:40 10° NNW
Cosmos 1092 Rocket 4.3 22:21:59 25° SSW 22:25:43 64° W 22:32:02 10° N
Cosmos 1833 Rocket 2.6 22:25:16 36° SSW 22:27:40 88° ESE 22:33:19 10° NNE
Cosmos 1328 Rocket 4.1 22:27:52 37° SW 22:29:10 52° W 22:33:24 10° N
Cosmos 1766 3.1 22:26:58 10° N 22:30:39 83° WNW 22:30:39 83° WNW
Cosmos 407 Rocket 3.8 22:34:46 47° ESE 22:35:09 48° ESE 22:40:12 10° NNE
Cosmos 724 4.2 22:34:15 42° SSW 22:36:19 75° ESE 22:42:09 10° NE
Cosmos 1656 4.2 22:32:05 10° NW 22:37:18 46° WSW 22:38:44 37° SSW
Cosmos 1515 Rocket 3.3 22:38:30 77° S 22:38:48 88° E 22:43:09 10° N
Cosmos 2082 Rocket 3.1 22:38:49 32° ESE 22:38:50 32° ESE 22:43:48 10° NE
Cosmos 2266 Rocket 4.4 22:38:38 41° SE 22:40:04 48° E 22:46:04 10° NNE
Cosmos 1975 4.4 22:37:18 10° NNW 22:40:35 26° W 22:41:18 24° WSW
BREEZE-M DEB (TANK) 3.3 22:42:14 53° NE 22:42:14 53° NE 22:46:37 10° ENE
Cosmos 1470 3.1 22:40:32 10° N 22:43:43 54° NE 22:43:43 54° NE
Cosmos 44 Rocket 3.1 22:39:23 10° NNW 22:44:18 84° NE 22:44:56 67° SE
Cosmos 2360 4.3 22:42:00 10° NNW 22:47:41 67° WSW 22:48:58 51° SSW
Cosmos 1470 Rocket 3.9 22:47:53 10° NNW 22:52:11 53° W 22:52:36 50° WSW
SL-8 R/B 3.9 22:48:01 10° WNW 22:52:46 69° NNE 22:54:05 46° E
Cosmos 1869 Rocket 4.1 22:49:35 10° N 22:53:48 46° ENE 22:53:51 46° E
Cosmos 1633 Rocket 4.4 22:52:09 10° NNW 22:55:59 30° W 22:56:46 28° WSW
Cosmos 1655 Rocket 4.4 22:57:28 41° SE 22:58:51 47° E 23:04:56 10° NNE
Cosmos 2251 Rocket 3.4 22:59:14 65° SSE 22:59:48 72° ESE 23:05:05 10° NNE
DELTA 2 R/B (1) 3.5 22:55:50 10° WSW 23:01:00 60° SSW 23:01:00 60° SSW
USA 59 Rocket 2.2 22:58:08 10° WNW 23:01:32 20° WSW 23:01:37 20° WSW
PSLV R/B 4.3 23:02:53 10° N 23:06:50 54° WNW 23:07:00 53° W
Cosmos 1908 3.8 23:03:49 10° N 23:06:34 50° N 23:06:34 50° N
Meteor 1-22 Rocket 4.4 23:03:06 10° N 23:08:22 55° ENE 23:09:19 48° ESE
Cosmos 1400 Rocket 4.0 23:15:48 35° ENE 23:15:48 35° ENE 23:18:40 10° NNE
Cosmos 1933 Rocket 3.9 23:12:54 10° NNW 23:17:09 56° W 23:17:09 56° W
Cosmos 1417 Rocket 4.5 23:11:15 10° N 23:17:32 77° W 23:19:03 53° SSW
GP-B 4.0 23:14:45 10° NNE 23:18:36 37° ENE 23:18:36 37° ENE
Meteor 1-15 Rocket 4.2 23:15:42 10° N 23:21:19 72° E 23:22:13 60° SE
Cosmos 1707 3.9 23:26:18 35° WNW 23:26:18 35° WNW 23:29:16 10° N
Cosmos 1697 Rocket 3.2 23:23:03 10° NW 23:28:22 44° WSW 23:28:53 43° WSW
ALOS 2 2.5 23:28:50 83° N 23:28:50 83° N 23:33:06 10° NNW
In-Cosmos 22 4.3 23:31:11 57° SW 23:32:20 76° W 23:38:04 10° N
USA 267 3.7 23:29:51 10° ENE 23:35:51 40° SE 23:35:51 40° SE
Lacrosse 5 rocket 2.2 23:32:45 10° NW 23:36:46 44° NE 23:37:07 43° NE
Cosmos 1300 3.8 23:33:43 10° N 23:36:14 37° NNE 23:36:14 37° NNE
PSLV R/B 3.9 23:32:53 10° NNE 23:36:50 56° ENE 23:36:50 56° ENE
Cosmos 1441 Rocket 4.2 23:33:49 10° NNW 23:36:17 39° NW 23:36:17 39° NW
H-2A R/B 3.5 23:37:59 36° W 23:37:59 36° W 23:41:34 10° NNW
Cosmos 1980 Rocket 2.0 23:32:37 10° NNW 23:38:20 79° WSW 23:39:03 67° S
Cosmos 1953 4.4 23:42:38 10° NNE 23:45:22 18° ENE 23:45:27 18° ENE
S3M 4.4 23:40:39 10° NNW 23:46:52 55° W 23:48:21 45° SW
SL-14 R/B 3.9 23:48:27 52° NNE 23:48:27 52° NNE 23:51:25 10° N
Cosmos 1707 Rocket 3.7 23:49:21 72° NE 23:49:21 72° NE 23:53:30 10° N
Celestis-02/Orion 38 4.4 23:52:30 71° SSW 23:52:53 76° WSW 23:58:12 10° NNW
Cosmos 841 Rocket 4.5 23:49:32 10° N 23:54:28 40° ENE 23:55:58 33° E
